sat.trackr.live / text

‹ back to catalog

KUIPER-00061

NORAD 64521 · 2025-134X

PAYLOAD ACTIVE UNKNOWN

§ Identity

Operator
Country
US
Launch date
2025-06-23
Launch site
AFETR
Launch vehicle
Mass (kg)
RCS (m²)

External: N2YO · Heavens-Above · Gunter

§ Orbital elements

Epoch: 2026-05-25T00:16:29.192736Z

Period
97.31 min
Inclination
51.9004°
Eccentricity
0.0000240
Mean motion
14.79852060 rev/d
Perigee alt
629.6 km
Apogee alt
630.0 km
Semi-major
7,007.9 km
B*
4.5394e-4
RAAN
250.5976°
Arg perigee
123.7144°
Mean anomaly
236.3842°
Rev number
5,143

§ Raw data

KUIPER-000611 64521U 25134X   26145.01144899  .00003235  00000+0  45394-3 0  99972 64521  51.9004 250.5976 0000240 123.7144 236.3842 14.79852060 51434

JSON: /api/v1/satellites/64521 · /tle

For live sub-satellite position, see the globe view (requires WebGL).

§ Visibility from observer

Set your observer location to see the next 7 days of passes ≥ 10°. The values pass through the URL so the page stays shareable.

No JS? Fill the form by hand. The geolocation button needs JavaScript.